Regional Weather Roundup
Issued by NWS

Home | Current Version | Previous Version | Text Only | Print | Product List | Glossary On
Versions: 1 2 3 4 5 6 7 8 9 10 11 12 13 14 15 16 17 18 19 20 21 22 23 24 25 26 27 28 29 30 31 32 33 34 35 36 37 38 39 40 41 42 43 44 45 46 47 48 49 50
000
ASUS43 KDTX 271810
RWRMI
MICHIGAN HOURLY REGIONAL WEATHER ROUNDUP
NATIONAL WEATHER SERVICE DETROIT/PONTIAC MI
200 PM EDT MON APR 27 2015

NOTE: "FAIR" INDICATES FEW OR NO CLOUDS BELOW 12,000 FEET WITH NO
SIGNIFICANT WEATHER AND/OR OBSTRUCTION TO VISIBILITY.

MIZ047>049-052>055-059>063-066>070-074>076-081>083-271900-
SOUTHEAST LOWER MICHIGAN

CITY           SKY/WX    TMP DP  RH WIND       PRES   REMARKS
ADRIAN         CLOUDY    48  37  65 N17       30.04R
6HR MIN TEMP:  43; 6HR MAX TEMP:  49;

ALMA           CLOUDY    50  33  52 N3        30.06S
ANN ARBOR      CLOUDY    46  34  62 NW14G20   30.03S
BAD AXE        CLOUDY    46  36  69 N15       30.04S
DETROIT CITY   CLOUDY    47  34  60 N8        30.02F
6HR MIN TEMP:  41; 6HR MAX TEMP:  47; 6HR PCP: TRACE;

DETROIT        CLOUDY    49  34  56 N10       30.03S
6HR MIN TEMP:  45; 6HR MAX TEMP:  50;

FLINT          CLOUDY    49  35  58 N13       30.05S
6HR MIN TEMP:  41; 6HR MAX TEMP:  50; 6HR PCP: TRACE;

GROSSE ILE     CLOUDY    48  36  61 N9G16     30.01S
HILLSDALE      CLOUDY    47  36  63 N8        30.03S
HOWELL         CLOUDY    46  35  65 N8        30.04S
6HR MIN TEMP:  40; 6HR MAX TEMP:  46;


CITY           SKY/WX    TMP DP  RH WIND       PRES   REMARKS
JACKSON        CLOUDY    45  36  70 NE8       30.04S
6HR MIN TEMP:  41; 6HR MAX TEMP:  47;

LAMBERTVILLE   CLOUDY    48  36  61 N7        30.03S
LANSING        CLOUDY    47  33  58 N8        30.06F
6HR MIN TEMP:  42; 6HR MAX TEMP:  47;

LAPEER         NOT AVBL
MASON          CLOUDY    46  33  62 N9        30.05S
MONROE         CLOUDY    46  36  66 CALM      30.01S
MT. CLEMENS    PTSUNNY   48  36  63 N18       29.99S
6HR MIN TEMP:  40; 6HR MAX TEMP:  48; 6HR PCP: TRACE;

PONTIAC        CLOUDY    46  35  65 NW13      30.02S
6HR MIN TEMP:  39; 6HR MAX TEMP:  46;

PORT HOPE        N/A     44  37  76 NW10      30.03S
6HR MIN TEMP:  39; 6HR MAX TEMP:  44;

PORT HURON     CLOUDY    45  36  70 N9G17     30.02S
TRI CITIES     CLOUDY    50  36  58 NE8       30.06S
6HR MIN TEMP:  43; 6HR MAX TEMP:  50;

YPSILANTI      CLOUDY    50  35  56 N13       30.03S
6HR MIN TEMP:  46; 6HR MAX TEMP:  51;

$$
MIZ043>046-050>051-056>058-064>065-071>073-077>080-271900-
SOUTHWEST LOWER MICHIGAN

CITY           SKY/WX    TMP DP  RH WIND       PRES   REMARKS
BATTLE CREEK   CLOUDY    50  34  54 N13G18    30.05S
BENTON HARBOR  SUNNY     45  37  73 NW8G21    30.10S
6HR MIN TEMP:  39; 6HR MAX TEMP:  45;

BIG RAPIDS     CLOUDY    49  33  52 N6        30.06S
6HR MIN TEMP:  40; 6HR MAX TEMP:  49;

COLDWATER      CLOUDY    48  35  60 N10       30.04S
6HR MIN TEMP:  40; 6HR MAX TEMP:  49;

HOLLAND        CLOUDY    50  36  58 NW10      30.08S
6HR MIN TEMP:  42; 6HR MAX TEMP:  55;

GRAND RAPIDS   CLOUDY    50  33  52 NE12      30.06S
6HR MIN TEMP:  41; 6HR MAX TEMP:  50;

KALAMAZOO      CLOUDY    49  34  56 N8        30.07R
6HR MIN TEMP:  41; 6HR MAX TEMP:  51;

MARSHALL       CLOUDY    47  34  60 N5        30.05R
MUSKEGON       PTSUNNY   53  34  48 N10       30.08R
6HR MIN TEMP:  42; 6HR MAX TEMP:  54;

$$
MIZ016>042-271900-
NORTHERN LOWER MICHIGAN

CITY           SKY/WX    TMP DP  RH WIND       PRES   REMARKS
ALPENA         PTSUNNY   52  33  48 N15       30.06S
6HR MIN TEMP:  40; 6HR MAX TEMP:  53; 6HR PCP: TRACE;

BEAVER ISLAND  CLOUDY    49  33  54 NW8       30.11S
6HR MIN TEMP:  41; 6HR MAX TEMP:  50;

BELLAIRE       PTSUNNY   53  33  48 N6        30.08S
6HR MIN TEMP:  41; 6HR MAX TEMP:  53;

CADILLAC       CLOUDY    49  34  56 NW10      30.05S
CHARLEVOIX     PTSUNNY   46  35  65 N9        30.13S
6HR MIN TEMP:  38; 6HR MAX TEMP:  46;

FRANKFORT      PTCLDY    50  31  46 N9G17     30.11S
GAYLORD        CLOUDY    49  31  49 VRB7      30.04F
6HR MIN TEMP:  38; 6HR MAX TEMP:  49;

GRAYLING       CLOUDY    50  32  50 CALM      30.06S
6HR MIN TEMP:  40; 6HR MAX TEMP:  50;

HARBOR SPRINGS CLOUDY    50  33  51 N5        30.08S
HOUGHTON LAKE  CLOUDY    50  32  50 NE10      30.05S
6HR MIN TEMP:  41; 6HR MAX TEMP:  50;

MANISTEE       MOSUNNY   48  34  57 NW12G22   30.10F
OSCODA         PTSUNNY   52  36  53 NE12      30.03S
PELLSTON       CLOUDY    50  33  52 N8        30.08F
6HR MIN TEMP:  41; 6HR MAX TEMP:  51;

TRAVERSE CITY  PTSUNNY   48  34  58 NE12G20   30.10R
6HR MIN TEMP:  42; 6HR MAX TEMP:  48;

$$
MIZ007>008-015-271900-
EASTERN UPPER MICHIGAN

CITY           SKY/WX    TMP DP  RH WIND       PRES   REMARKS
KINROSS        CLOUDY    46  36  66 NW15      30.08F
6HR MIN TEMP:  39; 6HR MAX TEMP:  46;

MACKINAC ISLAN CLOUDY    50  34  54 N10G16    30.08S
6HR MIN TEMP:  40; 6HR MAX TEMP:  51;

NEWBERRY       MOSUNNY   47  37  66 N14G24    30.10F
S. S. MARIE    CLOUDY    47  33  58 NW14      30.08F
6HR MIN TEMP:  41; 6HR MAX TEMP:  49;

$$
MIZ004>006-011>014-085-271900-
CENTRAL UPPER MICHIGAN

CITY           SKY/WX    TMP DP  RH WIND       PRES   REMARKS
MANISTIQUE       N/A    N/A N/A N/A MISG        N/A
ESCANABA       MOSUNNY   52  34  50 NE10G17   30.12S
6HR MIN TEMP:  37; 6HR MAX TEMP:  52;

MENOMINEE      SUNNY     48  34  57 E14       30.13S
6HR MIN TEMP:  37; 6HR MAX TEMP:  52;

SAWYER-GWINN   SUNNY     45  32  61 NE15G21   30.14S
$$
MIZ001>003-009>011-084-271900-
WESTERN UPPER MICHIGAN

CITY           SKY/WX    TMP DP  RH WIND       PRES   REMARKS
IRON MOUNTAIN  SUNNY     59  29  31 N12G22    30.10F
6HR MIN TEMP:  37; 6HR MAX TEMP:  60;

HOUGHTON       SUNNY     50  31  48 N13       30.17F
6HR MIN TEMP:  35; 6HR MAX TEMP:  52;

COPPER HARBOR    N/A     38  31  76 NE6       30.21R
6HR MIN TEMP:  38; 6HR MAX TEMP:  41;

IRONWOOD       SUNNY     52  30  43 N12       30.18F
6HR MIN TEMP:  28; 6HR MAX TEMP:  54;

$$

ABBREVIATIONS USED IN REMARKS
   TC - TEMPERATURE IN CELSIUS
  WCI - WIND CHILL INDEX
   HX - HEAT INDEX
  VSB - VISIBILITY




USA.gov is the U.S. government's official web portal to all federal, state and local government web resources and services.